Airfield :
LOGIN :

Register | Disclaimer

   EN    FR    IT 

 










Legend :    VFR   Marginal VFR   IFR   Intensive IFR   Very Intensive IFR
Visi :
Ceiling :
>= 8 km
>= 3000ft
5 to 8 km
1000 to 3000 ft
1500m to 5 km
500 to 1000 ft
800 to 1500m
200 to 500 ft
< 800m
< 200 ft
Symbols :   Thunderstorms  Fog  Heavy snow  Heavy precipitations  Wind > 20 kt
SIGMETs :     Misc.  Thunderstorms  Icing  Turbulence  Mountain Waves  Volcanic Ashes






- Airport Elevation : 13 ft
- IATA code : LYX


EGMD - Lydd

CURRENT METAR :
  • 252350Z AUTO 35005KT 5000 BR BKN038/// 16/16 Q1009

EXPIRED METARs :
  • 252320Z AUTO 35005KT 8000 SCT031/// OVC036/// 17/16 Q1009
  • 252250Z AUTO 34004KT 9999 SCT024/// OVC032/// 17/17 Q1009
  • 252220Z AUTO 32005KT 9999 FEW014/// BKN020/// BKN025/// 17/16 Q1009
  • 252150Z AUTO VRB03KT 9999 SCT011/// 16/16 Q1009
  • 252120Z AUTO 32003KT 9999 NCD 17/16 Q1008

TAF TAF EGMD
Valid from the 26 at 00:00 until the 26 at 09:00 UTC


252257Z 2600/2609 33005KT 9999 FEW010
PROB30
TEMPO 2600/2609 4000 +SHRA BR BKN007 BKN014CB
ATIS : +44 1797 322 422



MET'MAP, your aeronautical weather chart ! - Copyright ORBIFLY December 2007 - Disclaimer

ORBIFLY MET'MAP TEAM :

Programming & Development : Alexandra Zaïnal
Concept & original design : Baudouin d'Aumeries
Assistance for programming : Marc-Olivier Méhu
Technical & hardware support : Manuel Goepfert

Contact : metmap@orbifly.com




SOURCES & CREDITS :

   NOAA